Regional Weather Roundup
Issued by NWS Sioux Falls, SD

Home | Current Version | Previous Version | Graphics & Text | Print | Product List | Glossary On
Versions: 1 2 3 4 5 6 7 8 9 10 11 12 13 14 15 16 17 18 19 20 21 22 23 24 25 26 27 28 29 30 31 32 33 34 35 36 37 38 39 40 41 42 43 44 45 46 47 48 49 50
000
ASUS43 KFSD 251910
RWRFSD

WEATHER ROUNDUP FOR SE SOUTH DAKOTA/SW MINNESOTA/NW IOWA
NATIONAL WEATHER SERVICE SIOUX FALLS SD
200 PM CDT WED MAY 25 2016

NOTE: "FAIR" INDICATES FEW OR NO CLOUDS BELOW 12,000 FEET WITH NO
SIGNIFICANT WEATHER AND OR OBSTRUCTIONS TO VISIBILITY.


SDZ038>040-050-052>070-252000-
SOUTHEAST SOUTH DAKOTA

CITY           SKY/WX    TMP DP  RH WIND       PRES   REMARKS
BROOKINGS      PTSUNNY   70  60  70 SW14      29.81S
CHAMBERLAIN    SUNNY     74  62  65 W8        29.80F
HURON          PTSUNNY   73  59  61 W10       29.78R
MADISON        MOCLDY    70  68  94 SW9       29.83S
MITCHELL       MOSUNNY   74  62  66 S10       29.80F
SIOUX FALLS    PTSUNNY   74  61  63 SW14G20   29.82F
YANKTON        SUNNY     79  57  47 SW9       29.79F
$$

MNZ071-072-080-081-089-090-097-098-252000-
SOUTHWEST MINNESOTA

CITY           SKY/WX    TMP DP  RH WIND       PRES   REMARKS
FAIRMONT       CLOUDY    75  52  43 S10G18    29.83S
JACKSON        MOSUNNY   77  57  50 SW14G20   29.83F
LUVERNE        MOSUNNY   73  59  60 SW12G18   29.83S
MARSHALL       NOT AVBL
MONTEVIDEO     CLOUDY    79  61  53 SW14G21   29.78F
PIPESTONE      PTSUNNY   72  61  68 SW14      29.83S
REDWOOD FALLS  CLOUDY    77  62  59 S13       29.80F
TRACY          PTSUNNY   77  62  58 S13       29.81F
WINDOM         MOSUNNY   77  61  57 SW13      29.82F
WORTHINGTON    CLOUDY    74  62  66 S20       29.84F
$$

IAZ001>003-012>014-020>022-031-032-NEZ013-014-SDZ071-252000-
NORTHWEST IOWA

CITY           SKY/WX    TMP DP  RH WIND       PRES   REMARKS
CHEROKEE       CLOUDY    75  64  68 SW12      29.84S
DENISON        MOSUNNY   75  59  57 VRB5G13   29.83F
ESTHERVILLE    CLOUDY    76  59  55 SW13G24   29.82F
LE MARS        SUNNY     77  63  61 SW14      29.83F
ORANGE CITY    SUNNY     75  63  64 SW14G20   29.83F
SHELDON        MOSUNNY   77  63  61 SW14G22   29.82S
SIOUX CITY     SUNNY     79  61  53 S12       29.82F
SPENCER        MOSUNNY   77  60  55 SW15      29.83F
STORM LAKE       N/A     77  59  53 SW15G24   29.85F
$$

ABBREVIATIONS USED IN REMARKS
   TC - TEMPERATURE IN CELSIUS
  WCI - WIND CHILL INDEX
   HX - HEAT INDEX
  VSB - VISIBILITY





USA.gov is the U.S. government's official web portal to all federal, state and local government web resources and services.